Regional Weather Roundup
Issued by NWS Midland/Odessa, TX

Skip options and go directly to product.
Home | Oldest Version | Previous Version | Current Version | All | Graphics & Text | Save Text | Print | Product List | Glossary On

Skip product version selection by date and time.   
033
ASUS44 KMAF 052010
RWRMAF
MIDLAND AREA WEATHER ROUNDUP
NATIONAL WEATHER SERVICE MIDLAND TX
300 PM CDT THU MAY 05 2016

...IN SOUTHWEST TEXAS AND SOUTHEAST NEW MEXICO...

CITY           SKY/WX    TMP DP  RH WIND       PRES   REMARKS
ALPINE         MOSUNNY   80  26  13 SE8       30.21F
ANDREWS        FAIR      85  28  12 SE5       30.10F
ARTESIA        SUNNY     84  25  11 S20G31    30.08F
BIG SPRING     SUNNY     82  35  19 S8        30.11F
CARLSBAD       SUNNY     86  24  10 SE14G23   30.06F
DRYDEN           N/A     89  33  13 SE13G23   30.05F
FORT STOCKTON  PTSUNNY   86  28  12 SE15      30.09F
GUAD PASS      MOSUNNY   78  18  10 E9G21     30.18F
HOBBS          SUNNY     82  23  11 SE9G22    30.12F
MARFA          SUNNY     80  27  14 S9G17     30.17F
MIDLAND AIRPK  SUNNY     88  30  12 SE15      30.09F
MIDLAND INTL   MOSUNNY   87  29  12 E12G23    30.08F
ODESSA         MOSUNNY   86  29  12 S12G17    30.10F
PECOS          CLOUDY    90  25   9 E13G20    30.05F
PRESIDIO       FAIR      89  34  14 SE3       30.02F
SEMINOLE       SUNNY     85  27  12 S9        30.11F
SNYDER           N/A     83  40  21 SE9       30.10F
WINK           SUNNY     87  25  10 SE15G22   30.05F
$$
...OTHER STATIONS IN TEXAS...

CITY           SKY/WX    TMP DP  RH WIND       PRES   REMARKS
ABILENE        SUNNY     83  48  29 VRB5      30.08F
AMARILLO       SUNNY     84  37  18 S10       30.09F
AUSTIN         PTSUNNY   85  53  33 CALM      30.02F
BROWNSVILLE    SUNNY     90  53  28 VRB3      29.98F
CORPUS CHRISTI MOSUNNY   91  48  22 NE5       29.99F
DALLAS FTW     MOSUNNY   81  44  27 NW9       30.05F
DEL RIO        SUNNY     87  41  19 E6        30.02F
EL PASO        PTSUNNY   88  27  11 SE17G23   30.03F
HOUSTON INT    MOSUNNY   83  47  28 N10       29.98F
LUBBOCK        MOSUNNY   85  26  11 SW6G17    30.08F
SAN ANGELO     SUNNY     87  40  19 VRB5      30.06F
SAN ANTONIO    PTSUNNY   85  52  32 E8        30.04F
WACO           SUNNY     82  47  29 CALM      30.05F
WICHITA FALLS  NOT AVBL
$$
...OTHER LOCATIONS IN NEW MEXICO...

CITY           SKY/WX    TMP DP  RH WIND       PRES   REMARKS
ALAMAGORDO     MOSUNNY   86  23  10 S10G24    30.07F
ALBUQUERQUE    MOSUNNY   81  26  13 SW6       30.11F
CANNON AFB     MOSUNNY   83  19   9 S14       30.10F
CLOVIS         SUNNY     82  28  14 S16       30.12F
HOLLOMAN AFB   PTSUNNY   85  20   9 S12G21    30.05F
ROSWELL        SUNNY     86  23  10 S21G29    30.08F
RUIDOSO        LGT RAIN  73  19  13 SE17G29   30.24F
SANTA FE       MOSUNNY   77  22  13 MISG      30.16F
TRUTH OR CONSE MOSUNNY   82  24  12 SW13      30.07F
TUCUMCARI      SUNNY     86  22   9 MISG      30.07F
$$

USA.gov is the U.S. government's official web portal to all federal, state and local government web resources and services.